sat.trackr.live / text

‹ back to catalog

STARLINK-37049

NORAD 68152 · 2026-049L

PAYLOAD ACTIVE UNKNOWN

§ Identity

Operator
Country
US
Launch date
2026-03-13
Launch site
AFWTR
Launch vehicle
Mass (kg)
RCS (m²)

Purposes: comms

External: N2YO · Heavens-Above · Gunter

§ Orbital elements

Epoch: 2026-05-25T01:10:13.980288Z

Period
93.91 min
Inclination
97.2847°
Eccentricity
0.0000775
Mean motion
15.33448262 rev/d
Perigee alt
465.0 km
Apogee alt
466.1 km
Semi-major
6,843.7 km
B*
3.4324e-4
RAAN
166.7708°
Arg perigee
79.1801°
Mean anomaly
280.9529°
Rev number
1,135

§ Raw data

STARLINK-370491 68152U 26049L   26145.04877292  .00011023  00000+0  34324-3 0  99952 68152  97.2847 166.7708 0000775  79.1801 280.9529 15.33448262 11354

JSON: /api/v1/satellites/68152 · /tle

For live sub-satellite position, see the globe view (requires WebGL).

§ Visibility from observer

Set your observer location to see the next 7 days of passes ≥ 10°. The values pass through the URL so the page stays shareable.

No JS? Fill the form by hand. The geolocation button needs JavaScript.